Home > Weather > Ankara > Past weeks

Flag for Turkey Weather for the Past 2 Weeks in Ankara, Turkey

Now
18 °F

Clear.


Feels Like: 18 °F
Forecast: 18 / 47 °F
Wind: 2 mph from North

Location: Ankara / Esenboga

Current Time: Feb 8, 2016 at 2:37:47 AM

Latest Report: Feb 8, 2016 at 1:50 AM


Visibility: 10 mi

Pressure: 30.27 "Hg (27.06 "Hg at 871m altitude)

Humidity: 79%

Dew point: 12 °F

Location of AnkaraLocation

Historic Weather in Ankara — Graph

°F

Ankara Temperature Yesterday

Maximum temperature yesterday: 34 °F (at 12:20 PM)
Minimum temperature yesterday: 21 °F (at 11:50 PM)
Average temperature yesterday: 29 °F

High & Low Weather Summary for the Past Weeks

 TemperatureHumidityPressure
High57 °F (Feb 4, 1:20 PM)100% (Jan 29, 4:20 AM)30.42 "Hg (Jan 29, 4:20 AM)
Low-8 °F (Jan 26, 6:20 AM)31% (Feb 5, 1:20 PM)29.71 "Hg (Feb 5, 4:20 PM)
Average29 °F78%30.19 "Hg
* Reported Jan 24 12:20 AM — Feb 8 12:20 AM, Ankara, Weather by CustomWeather, © 2016

Note: Actual official high and low records may vary slightly from our data, if they occured in-between our weather recording intervals... More about our weather records

Advertising

Ankara Weather History for the Previous 24 Hours

 ConditionsComfort  
Time TempWeatherWind HumidityBarometerVisibility
12:20 AM
Mon, Feb 8
21 °FClear.3 mph80%30.24 "Hg10 mi
11:50 PM
Sun, Feb 7
21 °FClear.1 mph80%30.27 "Hg10 mi
11:20 PM23 °FClear.1 mph74%30.27 "Hg10 mi
10:50 PM23 °FClear.2 mph80%30.27 "Hg10 mi
10:20 PM23 °FClear.2 mph80%30.27 "Hg10 mi
9:50 PM23 °FPassing clouds.3 mph74%30.24 "HgN/A
9:20 PM23 °FClear.2 mph74%30.24 "Hg10 mi
8:50 PM25 °FPassing clouds.3 mph74%30.24 "HgN/A
8:20 PM27 °FPassing clouds.3 mph69%30.24 "HgN/A
7:50 PM28 °FClear.2 mph64%30.24 "Hg10 mi
7:20 PM27 °FClear.3 mph69%30.24 "Hg10 mi
6:50 PM28 °FClear.1 mph64%30.21 "Hg10 mi
6:20 PM28 °FClear.2 mph69%30.21 "Hg10 mi
5:50 PM30 °FClear.7 mph64%30.21 "Hg10 mi
5:20 PM30 °FClear.8 mph64%30.18 "Hg10 mi
4:50 PM32 °FSunny.12 mph51%30.18 "Hg10 mi
4:20 PM32 °FSunny.12 mph55%30.18 "Hg10 mi
3:50 PM34 °FSunny.13 mph44%30.18 "Hg10 mi
3:20 PM34 °FSunny.14 mph51%30.18 "Hg10 mi
2:50 PM34 °FSunny.14 mph44%30.18 "Hg10 mi
2:20 PM34 °FSunny.10 mph44%30.18 "Hg10 mi
1:50 PM34 °FPassing clouds.12 mph48%30.15 "HgN/A
1:20 PM34 °FPassing clouds.8 mph44%30.15 "HgN/A
12:50 PM34 °FPassing clouds.12 mph51%30.18 "HgN/A
12:20 PM34 °FPassing clouds.9 mph48%30.18 "HgN/A
11:50 AM32 °FPassing clouds.13 mph51%30.18 "HgN/A
11:20 AM32 °FScattered clouds.14 mph55%30.18 "HgN/A
10:50 AM32 °FScattered clouds.16 mph60%30.21 "HgN/A
10:20 AM32 °FScattered clouds.14 mph55%30.21 "HgN/A
9:50 AM32 °FScattered clouds.5 mph60%30.21 "HgN/A
9:20 AM30 °FScattered clouds.6 mph59%30.21 "HgN/A
8:50 AM28 °FScattered clouds.7 mph64%30.18 "HgN/A
8:20 AM28 °FScattered clouds.10 mph64%30.18 "HgN/A
7:50 AM27 °FScattered clouds.8 mph69%30.18 "HgN/A
7:20 AM27 °FScattered clouds.10 mph69%30.15 "HgN/A
6:50 AM25 °FPassing clouds.6 mph74%30.15 "HgN/A
6:20 AM28 °FPassing clouds.7 mph69%30.15 "HgN/A
5:50 AM28 °FPassing clouds.6 mph69%30.12 "HgN/A
5:20 AM28 °FPassing clouds.8 mph69%30.12 "HgN/A
4:50 AM28 °FPassing clouds.6 mph69%30.12 "HgN/A
4:20 AM28 °FPassing clouds.3 mph69%30.12 "HgN/A
3:50 AM28 °FPassing clouds.6 mph69%30.12 "HgN/A
3:20 AM28 °FPassing clouds.7 mph69%30.09 "HgN/A
2:50 AM28 °FPassing clouds.6 mph69%30.09 "HgN/A
2:20 AM27 °FPassing clouds.6 mph74%30.09 "HgN/A
Weather by CustomWeather, © 2016

See weather overviewHow to use our weather pages